Regional Weather Roundup
Issued by NWS

Home | Current Version | Previous Version | Text Only | Print | Product List | Glossary Off
Versions: 1 2 3 4 5 6 7 8 9 10 11 12 13 14 15 16 17 18 19 20 21 22 23 24 25 26 27 28 29 30 31 32 33 34 35 36 37 38 39 40 41 42 43 44 45 46 47 48 49 50

000
ASUS43 KOAX 281410
RWRNE

WEATHER ROUNDUP FOR NEBRASKA
NATIONAL WEATHER SERVICE OMAHA NE
900 AM CDT TUE MAR 28 2017

NOTES: SATELLITE DATA IS BEING USED TO AUGMENT CLOUD COVER ABOVE
       12000 FEET.
       "FAIR" INDICATES FEW OR NO CLOUDS BELOW 12,000 FEET WITH NO
       SIGNIFICANT WEATHER AND/OR OBSTRUCTIONS TO VISIBILITY.

  * THESE STATIONS DO NOT REPORT WEATHER SUCH AS RAIN...SNOW OR FOG.

NEZ001>004-019>022-054>056-281500-
NEBRASKA PANHANDLE

CITY           SKY/WX    TMP DP  RH WIND       PRES   REMARKS
SCOTTSBLUFF    LGT RAIN  45  43  93 E13       29.92R FOG
ALLIANCE       RAIN      44  42  93 E6        29.95R FOG
CHADRON        RAIN      44  42  93 NE8       29.98R FOG
KIMBALL        CLOUDY    44  44 100 SE6       29.90R FOG
SIDNEY         CLOUDY    44  42  93 SE16      29.90R FOG
$$

NEZ057>060-069>072-079>082-281500-
SOUTHWEST NEBRASKA

CITY           SKY/WX    TMP DP  RH WIND       PRES   REMARKS
NORTH PLATTE   LGT RAIN  44  42  93 E12       30.00R FOG
IMPERIAL       LGT RAIN  45  43  93 E13       29.94R FOG
LEXINGTON      FOG       44  42  95 SE8       30.03R VSB 1/4
MCCOOK         CLOUDY    45  45 100 SE9       29.98R FOG
OGALLALA       CLOUDY    45  44  96 E9        29.96R FOG
$$

NEZ005>010-023>029-035>040-094-281500-
NORTH CENTRAL NEBRASKA

CITY           SKY/WX    TMP DP  RH WIND       PRES   REMARKS
VALENTINE      LGT RAIN  45  42  89 E6        30.03R FOG
AINSWORTH      CLOUDY    42  42 100 SE6       30.05R FOG
BROKEN BOW     CLOUDY    43  41  93 E10       30.03F FOG
O`NEILL        CLOUDY    42  41  98 SW5       30.08R FOG
ORD            CLOUDY    44  40  85 E3        30.06R FOG
THEDFORD       FOG       43  42  97 E9        30.03R VSB 1/2
$$

NEZ041-046>049-061>064-073>077-083>087-281500-
SOUTH CENTRAL NEBRASKA

CITY           SKY/WX    TMP DP  RH WIND       PRES   REMARKS
GRAND ISLAND   MOSUNNY   35  35 100 N3        30.08R FOG
AURORA         FOG       34  34 100 CALM      30.08R VSB 1/4
HASTINGS       CLOUDY    43  39  86 SE9       30.07R
HEBRON         CLOUDY    40  39  97 NE5       30.09R FOG
HOLDREGE       CLOUDY    43  42  97 E13       30.03R FOG
KEARNEY *      CLOUDY    43  39  87 SE8       30.06R
YORK           CLOUDY    36  36 100 CALM      30.08R FOG
$$

NEZ011>018-030>034-042>045-281500-
NORTHEAST NEBRASKA

CITY           SKY/WX    TMP DP  RH WIND       PRES   REMARKS
NORFOLK        MOSUNNY   38  37  97 SE5       30.09R FOG     WCI  34
ALBION         FOG       37  35  94 CALM      30.10R VSB<1/4
BLAIR          CLOUDY    43  40  89 N6        30.09R
FREMONT        CLOUDY    42  40  95 CALM      30.10S
TEKAMAH        MOSUNNY   39  37  92 N6        30.11R WCI  35
WAYNE          PTSUNNY   33  33  99 CALM      30.10R
$$

NEZ050>053-065>068-078-088>093-281500-
SOUTHEAST NEBRASKA

CITY           SKY/WX    TMP DP  RH WIND       PRES   REMARKS
LINCOLN        CLOUDY    40  38  93 CALM      30.10R FOG
OMAHA EPPLEY   CLOUDY    42  38  85 N6        30.10R
BEATRICE       CLOUDY    44  41  91 NE5       30.08R
FALLS CITY     CLOUDY    47  43  86 E6        30.07S
NEBRASKA CITY  CLOUDY    45  41  87 CALM      30.09R
PLATTSMOUTH    CLOUDY    45  38  78 NE5       30.09R
$$

NEZ044-045-051>053-067-281500-
OMAHA AREA

CITY           SKY/WX    TMP DP  RH WIND       PRES   REMARKS
OMAHA EPPLEY   CLOUDY    42  38  85 N6        30.10R
BLAIR          CLOUDY    43  40  89 N6        30.09R
FREMONT        CLOUDY    42  40  95 CALM      30.10S
MILLARD        CLOUDY    47  41  80 CALM      30.10S
OFFUTT AFB     CLOUDY    43  37  81 NE7       30.10R
PLATTSMOUTH    CLOUDY    45  38  78 NE5       30.09R
WAHOO          CLOUDY    44  41  90 E3        30.09S
$$




USA.gov is the U.S. government's official web portal to all federal, state and local government web resources and services.